Regional Weather Roundup
Issued by NWS

Home | Current Version | Previous Version | Graphics & Text | Print | Product List | Glossary On
Versions: 1 2 3 4 5 6 7 8 9 10 11 12 13 14 15 16 17 18 19 20 21 22 23 24 25 26 27 28 29 30 31 32 33 34 35 36 37 38 39 40 41 42 43 44 45 46 47 48 49 50
000
ASUS43 KDMX 251306
RWRIA

WEATHER ROUNDUP FOR IOWA
NATIONAL WEATHER SERVICE DES MOINES IA
800 AM CDT SAT MAR 25 2017

NOTE: "FAIR" INDICATES FEW OR NO CLOUDS BELOW 12,000 FEET WITH NO
SIGNIFICANT WEATHER AND/OR OBSTRUCTIONS TO VISIBILITY.

* - THESE STATIONS ARE NOT NWS STATIONS...THUS NOT UNDER NWS
QUALITY CONTROL.  THEY ALSO DO NOT REPORT WEATHER SUCH
AS PRECIPITATION OR FOG.

IAZ001>003-012>014-020>022-031>034-043>046-251400-
   NORTHWEST IOWA

CITY           SKY/WX    TMP DP  RH WIND       PRES   REMARKS
CARROLL *      LGT RAIN  39  37  93 NE22      30.01R WCI  29
CHEROKEE *     CLOUDY    37  37  99 NE14      30.06R FOG     WCI  28
LE MARS *      CLOUDY    37  37 100 NE12G21   30.08R FOG     WCI  30
ORANGE CITY *  CLOUDY    36  36 100 NE8       30.07S FOG     WCI  29
SHELDON *      CLOUDY    36  36 100 NE16      30.07R FOG     WCI  26
SIOUX CITY     CLOUDY    38  38 100 NE12G23   30.07R WCI  30
SPENCER        CLOUDY    37  35  92 NE18      30.07S WCI  27
STORM LAKE *   FOG       36  36 100 NE22G30   30.03R VSB 3/4 WCI  24
$$

IAZ055>058-069>071-079>083-090>094-251400-
   SOUTHWEST IOWA

CITY           SKY/WX    TMP DP  RH WIND       PRES   REMARKS
ATLANTIC *     RAIN      39  39 100 NE21G28   29.95R WCI  29
AUDUBON *      RAIN      37  36  93 NE14G21   29.99R WCI  29
CLARINDA *     CLOUDY    43  43 100 NE17      29.93R FOG
COUNCIL BLFS * LGT RAIN  39  39 100 N16G22    29.97R WCI  30
CRESTON *      LGT RAIN  41  41 100 N21       29.90S
HARLAN  *      MIX PCPN  39  39 100 NE20G29   30.01R WCI  30
LAMONI         LGT RAIN  44  44 100 N15       29.86R FOG
RED OAK *      MIX PCPN  41  41 100 NE18G26   29.94R
SHENANDOAH *   LGT RAIN  41  41 100 N14G21    29.94R
$$

IAZ047>049-059>061-072>074-084-251400-
   CENTRAL IOWA

CITY           SKY/WX    TMP DP  RH WIND       PRES   REMARKS
AMES           LGT RAIN  39  39 100 NE10      29.98R FOG     WCI  32
ANKENY *       LGT RAIN  39  39 100 NE13G18   29.96S WCI  32
BOONE *        LGT RAIN  37  37 100 NE17G29   29.97R WCI  28
CHARITON *     RAIN      43  43 100 N15       29.87R
DES MOINES     LGT RAIN  41  39  93 N16G23    29.94S FOG
GRINNELL*      RAIN      39  38  95 NE16G25   29.94R WCI  30
MARSHALLTOWN   LGT RAIN  38  38 100 NE18G24   29.96S FOG     WCI  28
NEWTON *       CLOUDY    39  39 100 NE15G23   29.93R FOG     WCI  31
PELLA *        RAIN      42  41  98 NE12G18   29.91S
PERRY *        RAIN      39  38  97 NE13G18   29.99R WCI  32
$$

IAZ004>006-015-016-023>025-035-036-251400-
   NORTH CENTRAL IOWA

CITY           SKY/WX    TMP DP  RH WIND       PRES   REMARKS
ALGONA *       CLOUDY    37  37 100 NE15G22   30.05S FOG     WCI  28
CLARION *      CLOUDY    37  37 100 NE21G30   30.02R FOG     WCI  27
ESTHERVILLE    CLOUDY    35  35 100 NE16      30.08R FOG     WCI  25
FORT DODGE *   CLOUDY    37  34  87 NE13G20   30.03R WCI  29
MASON CITY     CLOUDY    37  35  92 NE17      30.06R WCI  27
FOREST CITY *  CLOUDY    36  36 100 NE15G24   30.06R FOG     WCI  26
WEBSTER CITY * LGT RAIN  37  37 100 NE22      29.99R WCI  27
IOWA FALLS *   CLOUDY    38  37  96 NE18G25   30.01R FOG     WCI  28
$$

IAZ007>011-017>019-026>030-037>042-050>054-066-251400-
   NORTHEAST IOWA

CITY           SKY/WX    TMP DP  RH WIND       PRES   REMARKS
CEDAR RAPIDS   LGT RAIN  39  39 100 NE21      29.93S FOG     WCI  29
CHARLES CITY * CLOUDY    37  37 100 NE22G28   30.05R WCI  27
CLINTON *      LGT RAIN  40  38  93 NE23      29.96S FOG     WCI  30
DECORAH *      CLOUDY    36  34  93 NE9G21    30.06R WCI  29
DUBUQUE        CLOUDY    37  36  96 NE20G30   29.99F WCI  27
MONTICELLO *   LGT RAIN  39  37  93 NE13G21   29.98S WCI  32
OELWEIN *      CLOUDY    37  36  93 NE18G25   30.01R FOG     WCI  27
WATERLOO       CLOUDY    38  35  89 NE20G26   30.01R WCI  28
$$

IAZ064-065-067-068-078-251400-
   EAST CENTRAL IOWA

CITY           SKY/WX    TMP DP  RH WIND       PRES   REMARKS
DAVENPORT      LGT RAIN  41  39  93 NE22      29.93S FOG
IOWA CITY      LGT RAIN  42  39  89 NE22G30   29.93F
MUSCATINE *    MIX PCPN  43  41  93 NE16      29.91F
QUAD CITIES    LGT RAIN  43  40  89 NE16      29.91F FOG
$$

IAZ062-063-075>077-085>089-095>099-251400-
   SOUTHEAST IOWA

CITY           SKY/WX    TMP DP  RH WIND       PRES   REMARKS
BURLINGTON     CLOUDY    46  32  58 NE13      29.86R HAZE
FAIRFIELD *    CLOUDY    43  43 100 NE17G23   29.87R FOG
FORT MADISON * CLOUDY    46  45  93 NE13      29.86R FOG
KEOKUK *       RAIN      48  46  93 NE10G17   29.85R
OSKALOOSA *    LGT RAIN  42  41  97 NE21      29.88R
OTTUMWA        RAIN      44  43  96 NE18G25   29.88R FOG
WASHINGTON *   LGT RAIN  43  43 100 NE15G21   29.91R
$$

ABBREVIATIONS USED IN REMARKS
   TC - TEMPERATURES IN CELSIUS
  WCI - WIND CHILL INDEX
   HX - HEAT INDEX
  VSB - VISIBILITY
$$





USA.gov is the U.S. government's official web portal to all federal, state and local government web resources and services.